www.pogodaiklimat.ru

Погода и климат >> Архив погоды >> Беларусь >> Ошмяны


ПОГОДА в Ошмянах

  • Прогноз погоды в Ошмянах
  • Монитор погоды в Ошмянах
  • Климат города

АРХИВ ПОГОДЫ в Ошмянах

Время (UTC), дата Ветер
(напр.,м/с)
 
Видим.   Явления Облачность Т
(С)
Тd
(С)
f
(%)
Тe
(С)
Тes
(С)
Комфортность P
(гПа)
Po
(гПа)
Тmin
(С)
Tmax
(С)
R
(мм)
R24
(мм)
S
(см)
09 13.09 СЗ 3 20 км 9/4 600 м
[Cu hum Ac trans]
+15.8 +9.9 68 +15 +17 1020.5 995.7
12 13.09 СЗ 3 20 км 9/3 600 м
[Cu hum Ac As]
+17.1 +9.7 62 +17 +19 1020.3 995.6
15 13.09 СЗ 2 20 км 9/0
[Ac As]
+16.6 +10.4 67 +17 +17 1019.7 995.0
18 13.09 штиль 0 14 км 8/0
[Ac As]
+13.9 +10.3 79 +14 +14 1019.7 994.7 +18.6
21 13.09 штиль 0 14 км 3/0
[Ac lent]
+11.6 +10.3 92 +11 +11 1019.7 994.6
00 14.09 штиль 0 14 км 9/0
[Ac As]
+10.9 +9.7 92 +10 +10 1020.0 994.8
03 14.09 штиль 0 8000 м слабый ливневой дождь 10/8 600 м
[Cb cap Ac As]
+11.3 +10.7 96 +11 +11 1019.8 994.7 +10.8
06 14.09 штиль 0 20 км {ливн. осадки} 9/0
[Ac trans]
+12.4 +11.2 92 +12 +13 1020.0 995.0 +10.8 0.7
09 14.09 штиль 0 20 км 9/1 600 м
[Cu med, cong Ac trans Cs]
+14.4 +12.2 87 +14 +19 1020.4 995.5
12 14.09 В 1 20 км 9/8 600 м
[Cb cap Ci fib]
+17.7 +11.7 68 +19 +20 1019.9 995.3
15 14.09 СЗ 1 20 км 8/5 600 м
[Sc Ci sp]
+17.7 +10.9 64 +19 +19 1019.5 994.9
18 14.09 штиль 0 14 км ясно +13.7 +10.3 80 +13 +13 1020.6 995.6 +18.9
21 14.09 штиль 0 14 км ясно +9.3 +8.5 95 +8 +8 1020.8 995.5
00 15.09 штиль 0 14 км ясно +6.8 +5.9 94 +6 +6 1020.8 995.2
03 15.09 штиль 0 10 км 3/0
[Ac lent Ci fib]
+4.9 +4.4 97 +4 +4 1020.5 994.7 +4.8
06 15.09 штиль 0 8000 м дымка {туман} 9/0
[Ac lent]
+7.4 +6.7 95 +6 +7 1019.9 994.3 +4.2
09 15.09 В 1 10 км 9/1 600 м
[Cb cap Ac As]
+11.2 +9.8 91 +11 +14 1018.9 993.8
12 15.09 штиль 0 10 км {ливн. осадки} 8/3 600 м
[Cb cap Ac trans Ci sp]
+14.2 +10.7 79 +14 +18 1017.1 992.4
15 15.09 Ю 1 20 км 8/0
[Ac trans Ci sp]
+16.4 +9.9 65 +17 +18 1016.5 991.9
18 15.09 ЮЗ 2 14 км 9/0
[Ac As]
+13.8 +11.5 86 +13 +13 1017.4 992.5 +17.4 0.0
21 15.09 З 2 10 км {ливн. осадки} 9/9 600 м
[Cb cap]
+12.7 +11.5 92 +12 +12 1017.5 992.5
00 16.09 ЮЗ 2 10 км {ливн. осадки} 8/8 600 м
[Cb cap]
+10.5 +9.9 96 +9 +9 1017.8 992.6
03 16.09 ЮЗ 2 10 км 9/9 300 м
[Frnb]
+10.4 +9.8 96 +9 +9 1018.0 992.8 +10.0
06 16.09 З 4 20 км 8/8 300 м
[Frnb]
+11.9 +10.4 91 +10 +10 1019.5 994.4 +9.9 0.0
09 16.09 СЗ 5 20 км 8/8 600 м
[Cu med, cong]
+15.2 +6.5 56 +14 +15 1020.5 995.6
12 16.09 СЗ 6-10
{11}
20 км 8/8 600 м
[Cu med, cong]
+18.1 +3.0 37 +18 +18 1020.7 996.1
15 16.09 З 7-10
{10}
20 км 4/3 600 м
[Cu med, cong Ci fib]
+17.1 +2.7 38 +16 +16 1021.2 996.5
18 16.09 ЮЗ 2
{10}
14 км 3/0
[Ac lent Ci fib]
+11.0 +4.6 65 +10 +10 1022.5 997.3 +19.1
21 16.09 ЮЗ 2 14 км 3/0
[Ac lent]
+8.6 +5.3 80 +7 +7 1023.3 997.8
00 17.09 З 1 14 км 4/0
[Ac lent]
+6.8 +5.9 94 +6 +6 1023.6 997.9
03 17.09 штиль 0 14 км 9/0
[Ac As]
+7.7 +6.5 92 +7 +7 1023.2 997.6 +5.7
06 17.09 Ю 3 20 км 8/0
[Ac lent Ci sp]
+10.6 +7.7 82 +9 +9 1022.5 997.3 +5.7
09 17.09 ЮЗ 6 20 км 5/0
[Ac trans Ci sp]
+17.1 +7.8 54 +16 +18 1021.4 996.7
12 17.09 Ю 6-10
{10}
20 км 8/6 600 м
[Cu hum Ci sp]
+19.6 +7.6 46 +20 +21 1020.1 995.7
15 17.09 ЮЗ 4
{11}
20 км 9/0
[Cs]
+18.9 +8.8 52 +19 +20 1018.7 994.2
18 17.09 ЮЗ 2 14 км 9/0
[Cs]
+15.7 +9.3 66 +16 +16 1019.1 994.3 +20.1
21 17.09 ЮЗ 2 14 км 9/0
[Ac trans Cs]
+14.3 +9.9 75 +14 +14 1018.9 994.0
00 18.09 З 2 14 км 3/0
[Ac lent]
+12.6 +9.7 82 +12 +12 1019.2 994.2
03 18.09 ЮЗ 1 14 км 9/0
[Ac As]
+11.1 +9.7 91 +11 +11 1019.9 994.7 +10.4
06 18.09 ЮЗ 2 10 км 9/0
[Ac As]
+12.4 +10.3 87 +11 +12 1020.6 995.6 +10.0
09 18.09 З 3 20 км 9/1 600 м
[Cu hum Ac trans Cs]
+18.6 +12.7 69 +19 +22 1020.7 996.2
12 18.09 ЮЗ 3 20 км 6/1 600 м
[Cu hum Ac trans Ci sp]
+22.2 +8.9 43 +24 +27 комфорт 1019.6 995.3
15 18.09 ЮЗ 3 20 км 5/0
[Ci sp]
+22.5 +9.5 44 +24 +25 комфорт 1018.3 994.1
18 18.09 ЮЗ 1 14 км ясно +17.5 +10.9 65 +19 +19 1019.1 994.5 +23.8
21 18.09 ЮЗ 2 14 км 3/0
[Ac trans]
+14.2 +10.6 79 +14 +14 1019.2 994.3
00 19.09 штиль 0 14 км ясно +11.2 +10.3 94 +10 +10 1019.2 994.1
03 19.09 штиль 0 6000 м дымка ясно +10.5 +10.2 98 +10 +10 1019.0 993.5 +10.0
06 19.09 ЮЗ 2 10 км 5/0
[Ci fib]
+14.9 +13.1 89 +15 +16 1018.3 993.5 +10.0
09 19.09 Ю 4 10 км 3 балла +22.2 +13.3 57 +25 +28 комфорт 1017.0 992.5
12 19.09 ЮЗ 5
{10}
10 км 3 балла +26.0 +13.1 45 +28 +30 жарко 1016.0 991.9
15 19.09 ЮЗ 3
{10}
10 км 10 баллов +25.0 +13.5 49 +27 +27 жарко 1016.0 991.8
18 19.09 ЮЗ 2 10 км 3 балла +19.6 +14.4 72 +22 +22 комфорт 1017.0 992.3 +26.9
21 19.09 ЮЗ 2 10 км ясно +17.1 +13.6 80 +17 +17 1018.0 993.1
00 20.09 штиль 0 10 км ясно +14.4 +13.1 92 +14 +14 1018.0 992.9
03 20.09 ЮЗ 1 10 км ясно +13.0 +12.1 94 +13 +13 1019.0 993.7 +13.0
06 20.09 ЮЗ 1 10 км ясно +14.3 +12.5 89 +15 +16 1019.0 993.8 +10.6

 

Местоположение метеостанции Ошмяны (Гродненская область, Беларусь): широта 54.43 долгота 25.93 высота над уровнем моря 211 м.

В архиве по умолчанию представлена погода в Ошмянах за последнюю неделю. Архивные данные за месяц целиком и за предыдущие месяцы, начиная с января 2011 года, Вы можете получить, выбрав интересующий диапазон дат из раскрывающегося списка и нажав кнопку "Ввод!".


*Определитесь, кто Вы:
робот инопланетянин человек

Внимание! Время в таблицах - всемирное. Для получения местного времени необходимо прибавить поправку, которая в Ошмянах равна 3 ч.

Смотрите также архив погоды в соседних городах и на ближайших метеорологических станциях:

Погода в Vilnius (Литва) (47 км)
Погода в Воложине (Минская область, Беларусь) (54 км)
Погода в Вилейке (Минская область, Беларусь) (69 км)
Погода в Лиде (Гродненская область, Беларусь) (71 км)
Погода в Лынтупах (Витебская область, Беларусь) (73 км)
Погода в Нарочи (Минская область, Беларусь) (75 км)
Погода в ?ven?ionys (Литва) (82 км)
Погода в Varena (Литва) (92 км)
Погода в Новогрудке (Гродненская область, Беларусь) (92 км)
Погода в Столбцах (Минская область, Беларусь) (118 км)

Пояснения к столбцам:

Ветер - указаны скорость ветра в м/с - средняя за 10 мин, порывы в срок и между сроками (в фигурных скобках) и направление, откуда дует ветер: С - северный, СВ - северо-восточный, В - восточный, ЮВ - юго-восточный, Ю - южный, ЮЗ - юго-западный, З - западный, СЗ - северо-западный.
Видимость - горизонтальная дальность видимости в метрах или километрах. При видимости от 1 до 10 км при отсутствии осадков обычно наблюдается дымка, при ухудшении видимости до 1 км и менее - туман. В сухую погоду видимость может ухудшаться дымом, пылью или мглою.
Явления - указаны атмосферные явления, наблюдавшиеся в срок или в последний час перед сроком; фигурными скобками обозначены явления, наблюдавшиеся между сроками (за 1-3 часа до срока); квадратными скобками обозначены град или гололедные отложения с указанием их диаметра в мм.
Облачность - указаны через наклонную черту общая и нижняя облачность в баллах и высота нижней границы облаков в метрах; квадратными скобками обозначены формы облаков: Ci - перистые, Cs - перисто-слоистые, Cc - перисто-кучевые, Ac - высококучевые, As - высокослоистые, Sc - слоисто-кучевые, Ns - слоисто-дождевые, Cu - кучевые, Cb - кучево-дождевые. Подробнее классификацию облаков см. в Атласе облаков (PDF).
T - Температура воздуха - температура, измеренная на высоте 2 м над землей.
Td - Температура точки росы - температура, при понижении до которой содержащийся в воздухе водяной пар достигнет насыщения.
f - Относительная влажность воздуха - влажноcть воздуха, измеренная на высоте 2 м над землей.
Te - Эффективная температура - температура, которую ощущает одетый по сезону человек в тени. Характеристика душности погоды. При расчете учитывается влияние влажности воздуха и скорости ветра на теплоощущения человека.
Tes - Эффективная температура на солнце - температура, которую ощущает человек, с поправкой на солнечный нагрев. Характеристика знойности погоды. Зависит от высоты солнца над горизонтом, облачности и скорости ветра. Ночью, в пасмурную погоду, а также при ветре 12 м/с и более поправка равна нулю.
P - Атмосферное давление - приведенное к уровню моря атмосферное давление.
Po - Атмосферное давление - измеренное на уровне метеостанции атмосферное давление.
Tmin - Минимальная температура - минимум температуры воздуха на высоте 2 м над землей.
Tmax - Максимальная температура - максимум температуры воздуха на высоте 2 м над землей.
R - Количество осадков - Количество выпавших осадков за период времени, мм. При наведении курсора мыши на число - период времени, за который выпало указанное количество осадков.
R24 - Количество осадков - Количество выпавших осадков за 24 часа, мм.
S - Снежный покров - Высота снежного покрова, см. При наведении курсора мыши на число - состояние снежного покрова и степень покрытия местности в баллах.